Airfield :
LOGIN :

Register | Disclaimer

   EN    FR    IT 

 










Legend :    VFR   Marginal VFR   IFR   Intensive IFR   Very Intensive IFR
Visi :
Ceiling :
>= 8 km
>= 3000ft
5 to 8 km
1000 to 3000 ft
1500m to 5 km
500 to 1000 ft
800 to 1500m
200 to 500 ft
< 800m
< 200 ft
Symbols :   Thunderstorms  Fog  Heavy snow  Heavy precipitations  Wind > 20 kt
SIGMETs :     Misc.  Thunderstorms  Icing  Turbulence  Mountain Waves  Volcanic Ashes






- Airport Elevation : 272 ft
- IATA code : MXN


LFRU - Morlaix-Ploujean

CURRENT METAR :
  • 281700Z AUTO 24015KT 9999 BKN026 BKN180 BKN220 13/09 Q1010

EXPIRED METARs :
  • 281630Z AUTO 25013KT 9999 FEW021 BKN026 BKN036 13/10 Q1010
  • 281600Z AUTO 25017KT 9999 BKN028 BKN035 BKN210 13/09 Q1010
  • 281530Z AUTO 25018KT 9999 BKN028 BKN040 13/09 Q1010
  • 281500Z AUTO 26018G30KT 9999 BKN028 BKN034 BKN040 14/09 Q1009

TAF N/A



MET'MAP, your aeronautical weather chart ! - Copyright ORBIFLY December 2007 - Disclaimer

ORBIFLY MET'MAP TEAM :

Programming & Development : Alexandra Zaïnal
Concept & original design : Baudouin d'Aumeries
Assistance for programming : Marc-Olivier Méhu
Technical & hardware support : Manuel Goepfert

Contact : metmap@orbifly.com




SOURCES & CREDITS :

   NOAA